RYR4EX LEPA-EGBB

Flight info

Callsign RYR4EX
Flight time N/A
Altitude 38000
Route GALAT DCT RODRA N861 OLOXO DCT OKABI DCT TOU DCT TUPAR UN861 DIKRO UM184 KOTEM/N0362F240 M184 HEMEL
Aircraft B738/M-SDE3FGILRWY/SB1

Departure

Time N/A
Airport Palma de Mallorca Airport (LEPA)

Arrival

Time 2026-04-30 19:09
Airport Birmingham Airport (EGBB)
Time Latitude Longitude Altitude Speed Heading
2026-04-30 17:39 43.40807 1.13561 38103 ft 425 kts 336°
2026-04-30 17:42 43.69170 1.00850 38127 ft 434 kts 337°
2026-04-30 17:43 43.83559 0.94354 38137 ft 436 kts 337°
2026-04-30 17:44 44.00838 0.86511 38125 ft 434 kts 337°
2026-04-30 17:47 44.26554 0.74745 38127 ft 432 kts 338°
2026-04-30 17:48 44.46575 0.65508 38130 ft 435 kts 339°
2026-04-30 17:50 44.69759 0.54730 38139 ft 443 kts 339°
2026-04-30 17:52 44.87396 0.46471 38132 ft 446 kts 339°
2026-04-30 17:54 45.13805 0.34002 38122 ft 443 kts 339°
2026-04-30 17:56 45.37069 0.22916 38132 ft 441 kts 340°
2026-04-30 17:58 45.54536 0.14529 38136 ft 442 kts 340°
2026-04-30 18:00 45.77930 0.03209 38123 ft 445 kts 340°
2026-04-30 18:01 45.92603 -0.03942 38122 ft 446 kts 340°
2026-04-30 18:02 46.10155 -0.12549 38116 ft 443 kts 340°
2026-04-30 18:04 46.27615 -0.21169 38117 ft 442 kts 340°
2026-04-30 18:06 46.49946 -0.32279 38111 ft 444 kts 340°
2026-04-30 18:08 46.70482 -0.42581 38110 ft 448 kts 340°
2026-04-30 18:10 46.94136 -0.54551 38114 ft 451 kts 340°
2026-04-30 18:11 47.14827 -0.65114 38108 ft 450 kts 340°
2026-04-30 18:13 47.29574 -0.72696 38116 ft 449 kts 340°
2026-04-30 18:14 47.44322 -0.80324 38104 ft 450 kts 340°
2026-04-30 18:15 47.62560 -0.86442 38094 ft 452 kts 356°
2026-04-30 18:16 47.75127 -0.87817 38101 ft 453 kts 355°
2026-04-30 18:17 47.81410 -0.88577 38093 ft 453 kts 355°
2026-04-30 18:18 47.90838 -0.89740 38100 ft 453 kts 355°
2026-04-30 18:18 47.97128 -0.90518 38097 ft 454 kts 355°
2026-04-30 18:19 48.03417 -0.91296 38103 ft 454 kts 355°
2026-04-30 18:19 48.09709 -0.92076 38104 ft 454 kts 355°
2026-04-30 18:20 48.15999 -0.92857 38097 ft 454 kts 355°
2026-04-30 18:20 48.22291 -0.93641 38091 ft 454 kts 355°
2026-04-30 18:21 48.28580 -0.94426 38078 ft 453 kts 356°
2026-04-30 18:21 48.34866 -0.95213 38083 ft 453 kts 356°
2026-04-30 18:22 48.41110 -0.95997 38082 ft 453 kts 355°
2026-04-30 18:22 48.50520 -0.97181 38077 ft 452 kts 356°
2026-04-30 18:23 48.56783 -0.97972 38075 ft 451 kts 356°
2026-04-30 18:23 48.63042 -0.98764 38077 ft 451 kts 356°
2026-04-30 18:24 48.72414 -0.99954 38078 ft 450 kts 356°
2026-04-30 18:25 48.78656 -1.00750 38075 ft 450 kts 356°
2026-04-30 18:25 48.88020 -1.01946 38080 ft 450 kts 356°
2026-04-30 18:26 48.97383 -1.03147 38077 ft 450 kts 356°
2026-04-30 18:27 49.06762 -1.04354 38079 ft 451 kts 356°
2026-04-30 18:28 49.16142 -1.05567 38082 ft 451 kts 356°
2026-04-30 18:28 49.25543 -1.06786 38082 ft 452 kts 356°
2026-04-30 18:29 49.38047 -1.08416 38085 ft 453 kts 356°
2026-04-30 18:30 49.50604 -1.10061 38094 ft 453 kts 356°
2026-04-30 18:31 49.60039 -1.11058 38084 ft 453 kts
2026-04-30 18:32 49.69427 -1.09636 38093 ft 452 kts
2026-04-30 18:33 49.78835 -1.08271 38097 ft 453 kts
2026-04-30 18:33 49.88271 -1.06995 38102 ft 454 kts
2026-04-30 18:34 49.97720 -1.05712 38098 ft 455 kts
2026-04-30 18:35 50.04024 -1.04843 38105 ft 455 kts
2026-04-30 18:35 50.10326 -1.03957 38108 ft 455 kts
2026-04-30 18:36 50.19795 -1.02622 38101 ft 455 kts
2026-04-30 18:37 50.29252 -1.01288 38121 ft 455 kts
2026-04-30 18:37 50.35568 -1.00395 38115 ft 455 kts
2026-04-30 18:38 50.41881 -0.99513 38118 ft 455 kts
2026-04-30 18:38 50.48184 -0.98632 38124 ft 455 kts
2026-04-30 18:39 50.54490 -0.97747 38130 ft 455 kts
2026-04-30 18:39 50.60799 -0.96858 38133 ft 455 kts
2026-04-30 18:40 50.67117 -0.95965 37707 ft 461 kts
2026-04-30 18:40 50.70301 -0.95514 37360 ft 456 kts
2026-04-30 18:40 50.73443 -0.95061 36932 ft 451 kts
2026-04-30 18:40 50.76552 -0.94604 36552 ft 447 kts
2026-04-30 18:41 50.79638 -0.94149 36176 ft 443 kts
2026-04-30 18:41 50.82679 -0.93496 35776 ft 438 kts 15°
2026-04-30 18:41 50.85550 -0.92188 35399 ft 433 kts 20°
2026-04-30 18:41 50.88436 -0.90677 35012 ft 430 kts 21°
2026-04-30 18:42 50.91229 -0.89179 34638 ft 428 kts 21°
2026-04-30 18:42 50.96847 -0.86177 33856 ft 424 kts 21°
2026-04-30 18:42 50.99643 -0.84704 33458 ft 422 kts 21°
2026-04-30 18:45 51.26727 -0.70554 29810 ft 398 kts 22°
2026-04-30 18:45 51.29321 -0.69191 29426 ft 396 kts 22°
2026-04-30 18:45 51.31957 -0.67804 29058 ft 393 kts 22°
2026-04-30 18:46 51.34506 -0.66462 28668 ft 390 kts 22°
2026-04-30 18:46 51.37077 -0.65106 28323 ft 387 kts 22°
2026-04-30 18:46 51.39626 -0.63760 27960 ft 385 kts 22°
2026-04-30 18:46 51.42158 -0.62422 27609 ft 382 kts 22°
2026-04-30 18:47 51.44679 -0.61087 27261 ft 380 kts 22°
2026-04-30 18:47 51.47183 -0.59760 26907 ft 378 kts 22°
2026-04-30 18:47 51.49673 -0.58439 26565 ft 376 kts 22°
2026-04-30 18:47 51.52152 -0.57126 26208 ft 375 kts 21°
2026-04-30 18:48 51.54759 -0.56540 25582 ft 388 kts 356°
2026-04-30 18:48 51.57364 -0.57742 25109 ft 393 kts 333°
2026-04-30 18:48 51.59608 -0.60175 24790 ft 389 kts 319°
2026-04-30 18:48 51.61668 -0.62969 24490 ft 385 kts 318°
2026-04-30 18:49 51.63689 -0.65790 24145 ft 384 kts 317°
2026-04-30 18:49 51.65703 -0.68614 23799 ft 383 kts 317°
2026-04-30 18:49 51.67708 -0.71412 23429 ft 381 kts 318°
2026-04-30 18:49 51.69711 -0.74193 23083 ft 378 kts 318°
2026-04-30 18:50 51.71703 -0.76945 22763 ft 375 kts 318°
2026-04-30 18:50 51.73657 -0.79636 22427 ft 373 kts 318°
2026-04-30 18:50 51.75650 -0.82380 22093 ft 370 kts 318°
2026-04-30 18:50 51.77578 -0.85032 21756 ft 368 kts 318°
2026-04-30 18:51 51.79546 -0.87742 21411 ft 366 kts 319°
2026-04-30 18:51 51.81456 -0.90373 21086 ft 364 kts 318°
2026-04-30 18:51 51.83372 -0.93015 20800 ft 361 kts 319°
2026-04-30 18:51 51.85272 -0.95639 20492 ft 358 kts 318°
2026-04-30 18:52 51.87164 -0.98256 20172 ft 357 kts 318°
2026-04-30 18:52 51.89053 -1.00871 19759 ft 358 kts 318°
2026-04-30 18:52 51.90943 -1.03490 19443 ft 357 kts 318°
2026-04-30 18:52 51.92818 -1.06091 19177 ft 354 kts 318°
2026-04-30 18:53 51.94681 -1.08679 18889 ft 351 kts 318°
2026-04-30 18:53 51.96527 -1.11246 18584 ft 350 kts 318°
2026-04-30 18:53 51.98371 -1.13812 18264 ft 348 kts 318°
2026-04-30 18:53 52.00199 -1.16361 17929 ft 346 kts 318°
2026-04-30 18:54 52.01430 -1.18077 17697 ft 345 kts 318°
2026-04-30 18:54 52.03247 -1.20615 17392 ft 344 kts 318°
2026-04-30 18:54 52.05055 -1.23143 17065 ft 342 kts 318°
2026-04-30 18:54 52.06851 -1.25656 16755 ft 340 kts 318°
2026-04-30 18:55 52.08639 -1.28161 16439 ft 339 kts 318°
2026-04-30 18:55 52.12193 -1.33148 15814 ft 336 kts 318°
2026-04-30 18:55 52.13957 -1.35627 15506 ft 334 kts 318°
2026-04-30 18:56 52.17459 -1.40559 14893 ft 332 kts 318°
2026-04-30 18:56 52.19203 -1.43018 14577 ft 331 kts 318°
2026-04-30 18:56 52.20941 -1.45471 14286 ft 330 kts 318°
2026-04-30 18:57 52.24374 -1.50326 13638 ft 329 kts 317°
2026-04-30 18:57 52.26100 -1.52770 13320 ft 327 kts 317°
2026-04-30 18:57 52.27810 -1.55195 13038 ft 324 kts 317°
2026-04-30 18:58 52.31185 -1.59986 12486 ft 318 kts 317°
2026-04-30 18:58 52.32842 -1.62341 12251 ft 314 kts 317°
2026-04-30 18:58 52.34452 -1.64742 11983 ft 312 kts 312°
2026-04-30 18:59 52.37245 -1.70088 11401 ft 309 kts 306°
2026-04-30 19:00 52.41220 -1.78445 10397 ft 311 kts 305°
2026-04-30 19:00 52.42538 -1.81237 9956 ft 310 kts 305°
2026-04-30 19:00 52.45286 -1.86567 8960 ft 306 kts 320°
2026-04-30 19:01 52.48733 -1.90551 8017 ft 301 kts 325°
2026-04-30 19:01 52.50457 -1.92461 7545 ft 299 kts 325°
2026-04-30 19:02 52.53883 -1.96245 6634 ft 295 kts 325°
2026-04-30 19:02 52.57279 -1.99978 5681 ft 292 kts 325°
2026-04-30 19:03 52.61045 -2.01443 5017 ft 276 kts 16°
2026-04-30 19:03 52.63309 -1.97543 4496 ft 225 kts 91°
2026-04-30 19:04 52.61956 -1.93777 4036 ft 187 kts 140°
2026-04-30 19:04 52.60023 -1.91150 3564 ft 174 kts 145°
2026-04-30 19:05 52.58024 -1.88874 3107 ft 174 kts 146°
2026-04-30 19:05 52.56038 -1.86665 2649 ft 170 kts 146°
2026-04-30 19:06 52.54109 -1.84519 2189 ft 164 kts 145°
2026-04-30 19:06 52.53175 -1.83479 1966 ft 160 kts 144°
2026-04-30 19:06 52.51439 -1.81547 1572 ft 143 kts 142°
2026-04-30 19:07 52.49850 -1.79775 1200 ft 138 kts 142°
2026-04-30 19:07 52.49045 -1.78879 1003 ft 139 kts 143°
2026-04-30 19:08 52.47449 -1.77093 643 ft 140 kts 143°
2026-04-30 19:08 52.45859 -1.75323 318 ft 123 kts 149°
2026-04-30 19:08 52.45322 -1.74731 323 ft 59 kts 145°
2026-04-30 19:09 52.44947 -1.74302 326 ft 15 kts 114°
2026-04-30 19:09 52.44962 -1.74139 327 ft 14 kts 77°
2026-04-30 19:09 52.44989 -1.73971 323 ft 16 kts 76°
2026-04-30 19:10 52.45121 -1.73798 322 ft 13 kts 326°
2026-04-30 19:10 52.45284 -1.73973 322 ft 14 kts 340°
2026-04-30 19:11 52.45346 -1.73899 322 ft 11 kts 55°
2026-04-30 19:11 52.45429 -1.73697 322 ft 10 kts 56°
2026-04-30 19:11 52.45436 -1.73654 322 ft 3 kts 106°
2026-04-30 19:12 52.45417 -1.73625 321 ft 5 kts 144°
2026-04-30 19:12 52.45399 -1.73605 322 ft 2 kts 146°
2026-04-30 19:12 52.45389 -1.73594 322 ft 1 kts 146°